Content
SEND FEEDBACK

Daily
Averages
Monthly
Summary
United States of America

DUNSMUIR, CALIFORNIA


Home > North America > United States > California
Elevation: 3289 feet     Latitude: 41 12N     Longitude: 122 16W

WEATHER
 
SELECT A DAY
Number of Records: 231,561;   Date Range: 1/1/95 - 9/16/14
 
SHARE

PRINT THIS DATA

[ ← Previous Day ]
WEATHER ALMANAC - JULY 6, 2013
[ Next Day → ]
[ °C ]   °F
Weather ElementAverageHighLow
Temperature72.3 °F88 °F (1:56 pm)55 °F (4:56 am)
Dewpoint47.1 °F52 °F (4:56 pm)43 °F (1:56 am)
Humidity42.6 %64 % (4:56 am)27 % (1:56 pm)
Barometer29.82 in29.86 in (11:56 pm)29.78 in (3:56 pm)
Wind Speed1.2 mph5.8 mph (6:56 pm)
Weather ElementAverage
Visibility9.8 mi
Wind DirectionNNE (17 °)

Weather ElementTotal
Precipitation---
Cooling Degree Days6.5 (Base 65)
Growing Degree Days21.5 (Base 50)
Averaged from 23 records on July 6, 2013
WEATHER CONDITIONS BREAKOUT
WIND DIRECTION BREAKOUT
WEATHER BY HOUR - JULY 6, 2013
[ °C ]   °F
Local TimeTemperatureDewpointHumidityBarometerVisibilityWind DirectionWind SpeedGust SpeedPrecipitationEventsConditions
1:56 AM61.0 °F43.0 °F52 %29.84 in10.0 miCalmClear
2:56 AM59.0 °F43.0 °F55 %29.84 in10.0 miCalmClear
3:56 AM57.0 °F43.0 °F59 %29.84 in10.0 miCalmClear
4:56 AM55.0 °F43.0 °F64 %29.85 in10.0 miCalmClear
5:56 AM57.0 °F43.0 °F59 %29.85 in10.0 miCalmClear
6:56 AM60.1 °F44.1 °F55 %29.85 in10.0 miCalmClear
7:56 AM66.0 °F46.9 °F50 %29.83 in10.0 miCalmClear
8:56 AM71.1 °F48.9 °F45 %29.84 in10.0 miCalmClear
9:56 AM75.0 °F50.0 °F41 %29.83 in10.0 miWNW (300°)3.5 mphClear
10:56 AM80.1 °F50.0 °F35 %29.82 in10.0 miCalmClear
11:56 AM82.0 °F48.9 °F31 %29.82 in10.0 miVariable3.5 mphClear
12:56 PM86.0 °F50.0 °F29 %29.81 in10.0 miCalmClear
1:56 PM88.0 °F50.0 °F27 %29.80 in10.0 miCalmClear
2:56 PM87.1 °F51.1 °F29 %29.79 in10.0 miCalmClear
3:56 PM86.0 °F50.0 °F29 %29.78 in10.0 miVariable3.5 mphClear
4:56 PM86.0 °F52.0 °F31 %29.78 in10.0 miVariable3.5 mphPartly Cloudy
5:56 PM82.0 °F50.0 °F33 %29.78 in10.0 miCalmClear
6:56 PM79.0 °F44.1 °F29 %29.78 in10.0 miVariable5.8 mphClear
7:56 PM77.0 °F45.0 °F32 %29.79 in10.0 miEast (90°)4.6 mphClear
8:56 PM75.0 °F46.0 °F36 %29.81 in10.0 miVariable3.5 mphScattered Clouds
9:56 PM69.1 °F46.9 °F45 %29.83 in10.0 miCalmClear
10:56 PM64.9 °F46.9 °F52 %29.84 in5.0 miCalmHaze
11:56 PM60.1 °F46.9 °F62 %29.86 in10.0 miCalmClear
Hourly data recorded from KMHS, located miles away from Dunsmuir, California







STORIES FROM OUR PARTNERS